Location: Trebic
(49.2170°N, 15.8830°E)
Time: 10:47:29
(UTC+02:00)

Transit 4A - Pass Details

Date: 24 July 2019
Orbit: 863 x 981 km, 66.8° (Epoch: 21 August)

Event Time Altitude Azimuth Distance (km) Brightness Sun altitude
Exits shadow 00:12:45 13° 111° (ESE) 2,526 9.8 -19.9°
Maximum altitude 00:13:49 13° 100° (E) 2,494 9.9 -19.9°
Drops below altitude 10° 00:16:38 10° 74° (ENE) 2,738 10.4 -20.0°
Sets 00:20:44 0° 49° (NE) 3,692 11.4 -20.2°
